Location: La Croisi�re
(46.2049°N, 1.3871°E)
Time: 00:38:06
(UTC+00:00)

Daily predictions for brighter satellites

Satellite Brightness Start Highest point End
(mag) Time Altitude Azimuth Time Altitude Azimuth Time Altitude Azimuth
STARLINK-1240 3.8 00:00:20 10° WNW 00:03:59 52° WSW 00:03:59 52° WSW
Cosmos 1763 Rocket 3.4 00:05:57 48° S 00:07:18 72° ESE 00:12:22 10° NNE
Cosmos 1709 Rocket 4.5 00:05:05 31° SE 00:07:38 50° E 00:13:34 10° NNE
Cosmos 2227 Rocket 2.3 00:02:52 10° NNW 00:08:29 61° WSW 00:10:10 43° S
Landsat 4 3.6 00:05:22 10° N 00:09:04 72° WNW 00:09:24 66° WSW
STARLINK-1216 4.0 00:05:21 10° WNW 00:08:47 46° WSW 00:08:47 46° WSW
NOSS 7 (E) 4.3 00:09:44 79° NNE 00:09:44 79° NNE 00:12:41 10° NE
Cosmos 2084 Rocket 4.1 00:07:58 10° NNW 00:12:22 55° NE 00:14:58 23° ESE
SL-14 R/B 4.5 00:11:48 28° W 00:12:32 30° WNW 00:15:59 10° N
Cosmos 1356 Rocket 3.8 00:09:15 10° NNW 00:13:23 51° W 00:13:55 47° WSW
STARLINK-1237 4.2 00:10:21 10° WNW 00:13:34 41° WSW 00:13:34 41° WSW
Cosmos 1758 Rocket 4.2 00:15:28 39° SE 00:16:25 45° E 00:20:39 10° NNE
SL-16 R/B 4.2 00:11:37 10° ESE 00:16:40 27° ENE 00:21:44 10° N
STARLINK-75 4.3 00:18:02 32° E 00:18:02 32° E 00:20:00 10° ENE
STARLINK-1202 4.4 00:15:22 10° WNW 00:18:21 36° WSW 00:18:21 36° WSW
STARLINK-1283 4.0 00:20:03 45° ESE 00:20:03 45° ESE 00:23:39 10° ENE
STARLINK-80 4.2 00:21:06 39° ESE 00:21:06 39° ESE 00:24:00 10° ENE
Nadezhda 1 Rocket 4.1 00:16:42 10° NNW 00:22:54 68° W 00:25:28 37° SSW
CZ-4 R/B 3.7 00:18:51 10° NNE 00:23:36 82° ESE 00:24:50 50° S
Cosmos 1300 4.2 00:20:54 10° NW 00:24:00 24° W 00:24:09 24° W
STARLINK-22 4.3 00:26:16 31° E 00:26:16 31° E 00:28:13 10° ENE
SL-16 R/B 4.3 00:22:44 12° ESE 00:25:05 15° E 00:28:03 10° ENE
Cosmos 2208 Rocket 4.4 00:23:37 39° SSE 00:25:11 53° ESE 00:30:25 10° NNE
STARLINK-1297 4.2 00:26:32 36° ESE 00:26:32 36° ESE 00:29:06 10° ENE
STARLINK 1040 4.3 00:26:21 31° NNE 00:26:21 31° NNE 00:28:09 10° NE
STARLINK-1311 4.5 00:28:28 26° ENE 00:28:28 26° ENE 00:29:58 10° ENE
Cosmos 2285 Rocket 4.0 00:22:07 10° NNW 00:28:31 83° ENE 00:31:55 30° SSE
USA 81 4.1 00:30:17 40° SSE 00:32:09 73° E 00:37:26 10° N
CZ-2D R/B 3.9 00:28:36 10° NE 00:32:27 20° E 00:35:02 15° SE
Cosmos-2242 3.3 00:28:55 10° N 00:33:08 58° ENE 00:34:23 40° SE
Meteor 2-10 Rocket 3.3 00:28:29 10° NNW 00:33:38 83° W 00:35:15 44° S
USA 215 3.2 00:28:11 10° SE 00:34:46 81° SW 00:41:21 10° NW
Cosmos 1953 Rocket 4.5 00:33:32 32° SE 00:34:49 39° E 00:38:55 10° NNE
Cosmos 1626 Rocket 4.3 00:34:39 35° WSW 00:35:44 41° WNW 00:39:54 10° N
STARLINK-42 3.4 00:36:26 53° ENE 00:36:26 53° ENE 00:38:56 10° ENE
BREEZE-M R/B 3.6 00:28:59 10° W 00:35:54 64° NNW 00:39:23 10° ENE
Meteor 1-21 Rocket 4.2 00:34:27 40° SSW 00:36:39 85° W 00:42:29 10° N
STARLINK-34 4.4 00:40:01 27° E 00:40:01 27° E 00:41:45 10° ENE
STARLINK-60 4.4 00:36:23 10° NW 00:39:24 38° NNE 00:42:24 10° E
STARLINK-41 3.4 00:40:10 52° ENE 00:40:10 52° ENE 00:42:36 10° ENE
GP-B 4.5 00:37:03 10° NNE 00:41:02 31° E 00:42:58 22° SE
STARLINK-1272 3.4 00:42:02 57° ESE 00:42:02 57° ESE 00:45:11 10° ENE
STARLINK-62 4.2 00:43:45 30° E 00:43:45 30° E 00:45:36 10° ENE
Cosmos 540 Rocket 3.4 00:41:07 43° S 00:42:47 74° ESE 00:47:54 10° NNE
SeaSat 1 4.3 00:39:24 10° N 00:43:21 24° NW 00:47:17 10° W
STARLINK-1307 3.2 00:46:49 66° SE 00:46:49 66° SE 00:50:31 10° ENE
Helios 1B rocket 2.7 00:45:19 10° N 00:49:24 58° WNW 00:50:24 44° SW
STARLINK-1290 3.2 00:50:11 69° SSE 00:50:20 70° SE 00:54:02 10° ENE
Cosmos 1980 Rocket 2.1 00:51:50 38° SSW 00:54:04 80° ESE 00:59:46 10° NNE
STARLINK-1317 3.3 00:56:33 57° SW 00:57:17 83° SSE 01:01:13 10° ENE
Uosat 12 SS-18 rocket 4.2 00:53:09 10° NW 00:57:20 51° WSW 00:58:02 46° SSW
Meteor 1-29 2.9 00:54:37 10° N 00:57:57 66° WNW 00:58:11 62° WSW
Cosmos 1455 2.6 00:56:14 10° NNW 00:59:48 44° W 01:00:05 43° WSW
Cosmos 1328 3.7 00:59:35 54° SSW 01:00:25 81° W 01:04:26 10° N
STARLINK-55 3.5 01:00:33 44° WNW 01:01:14 55° NNW 01:04:23 10° NE
STARLINK-1274 3.1 01:00:56 68° SW 01:01:20 87° SE 01:04:54 10° ENE
STARLINK-43 4.5 01:00:05 16° W 01:02:39 41° NNW 01:06:10 10° NE
Cosmos 2369 4.2 01:02:04 27° WSW 01:05:01 53° WNW 01:10:35 10° NNE
STARLINK-1291 3.2 01:04:15 55° WSW 01:05:02 89° N 01:08:46 10° ENE
Cosmos 1937 Rocket 4.2 01:01:01 10° NW 01:05:51 38° WSW 01:07:10 33° SW
Meteor 1-11 4.3 01:03:54 32° S 01:06:33 68° E 01:12:06 10° NNE
Cosmos 1703 3.4 01:05:53 48° SW 01:06:43 62° W 01:10:36 10° N
Lacrosse 4 Rocket 2.8 01:04:14 10° NW 01:07:20 24° W 01:07:20 24° W
STARLINK-1264 3.3 01:07:26 50° WSW 01:08:20 85° NNW 01:12:05 10° ENE
Cosmos 1825 Rocket 3.7 01:08:39 41° SW 01:09:53 59° W 01:14:13 10° N
ADEOS II 4.2 01:06:54 10° NE 01:10:27 18° E 01:13:58 10° SE
Cosmos 2263 Rocket 2.5 01:05:04 10° NNW 01:10:39 64° ENE 01:15:58 11° SE
STARLINK-1267 3.3 01:10:40 45° WSW 01:11:42 81° NNW 01:15:27 10° ENE
Timation 1 Rocket 4.3 01:06:11 10° NNW 01:12:12 84° WSW 01:16:19 21° SSE
NOSS 2-1 (C) 4.2 01:12:05 28° SE 01:12:18 28° ESE 01:15:21 10° ENE
STARLINK-28 3.9 01:11:33 29° WNW 01:12:48 45° NNW 01:15:54 10° NE
SL-4 R/B 2.5 01:08:54 10° WNW 01:13:46 76° NNE 01:18:29 10° ESE
Cosmos 2297 Rocket 3.9 01:10:42 10° WNW 01:14:01 16° W 01:14:46 16° WSW
STARLINK-64 3.5 01:14:12 48° SSE 01:14:17 48° SE 01:17:46 10° ENE
UNK 4.3 01:11:41 20° SE 01:14:40 55° ENE 01:19:09 10° N
USA 229 DEB 4.1 01:08:45 10° NW 01:16:01 74° NE 01:23:39 10° SE
USA 229 4.1 01:08:52 10° NW 01:16:07 73° NE 01:23:44 10° SE
STARLINK-1287 4.5 01:16:13 32° SSE 01:16:37 33° SE 01:20:21 10° ENE
NOSS 3-1 (C) 4.2 01:09:24 10° NW 01:16:55 81° NE 01:25:33 10° SE
NOSS 2-1 (D) 4.0 01:16:50 31° SE 01:17:10 32° ESE 01:20:20 10° NE
STARLINK-1207 3.4 01:17:09 38° WSW 01:18:28 74° NNW 01:22:14 10° ENE
Cosmos 372 Rocket 4.0 01:13:25 10° NNW 01:18:31 64° WSW 01:20:47 32° S
NPP 4.4 01:14:34 10° NNE 01:19:45 45° E 01:22:54 22° SSE
Cosmos 2184 Rocket 4.1 01:16:26 26° S 01:20:04 68° E 01:26:12 10° NNE
CZ-4C R/B 3.4 01:16:43 12° W 01:21:07 37° NW 01:26:53 10° NNE
STARLINK-1266 3.5 01:20:25 34° WSW 01:21:53 70° NNW 01:25:37 10° ENE
BREEZE-M DEB (TANK) 2.6 01:23:13 38° E 01:23:13 38° E 01:24:52 10° ENE
STARLINK-33 4.0 01:21:41 26° WNW 01:23:00 42° NNW 01:26:00 10° NE
NOSS 3-1 (A) 4.5 01:17:38 10° NW 01:25:01 66° NE 01:33:32 10° SE
STARLINK-1299 4.1 01:24:05 38° S 01:25:01 45° SE 01:29:06 10° ENE
STARLINK-1284 3.6 01:23:40 31° WSW 01:25:17 67° NNW 01:29:02 10° ENE
STARLINK-26 4.2 01:24:27 20° W 01:26:28 43° NNW 01:29:46 10° NE
STARLINK-1302 4.2 01:25:46 35° SSE 01:26:31 39° SE 01:30:23 10° ENE
BREEZE-M DEB (TANK) 2.6 01:24:37 10° WNW 01:27:10 37° N 01:29:25 10° ENE
Alouette 2 Rocket 4.4 01:23:25 10° NNW 01:27:24 30° W 01:28:04 28° WSW
STARLINK-1258 3.7 01:26:59 29° W 01:28:43 64° NNW 01:32:27 10° NE
Cosmos 1869 4.2 01:26:44 10° N 01:30:26 43° ENE 01:33:00 18° SE
Cosmos 2150 Rocket 3.9 01:26:01 10° NNW 01:31:09 67° WSW 01:33:54 27° S
STARLINK-1273 4.2 01:30:32 36° S 01:31:28 42° SE 01:35:23 10° ENE
STARLINK-1292 3.7 01:30:17 26° W 01:32:10 61° NNW 01:35:54 10° NE
Cosmos 2322 Rocket 3.0 01:29:42 22° SSE 01:32:53 42° ESE 01:38:08 10° NE
STARLINK-1288 4.0 01:35:19 36° S 01:36:25 46° SE 01:40:23 10° ENE
STARLINK-61 4.3 01:35:51 31° SSE 01:36:34 34° SE 01:40:08 10° ENE
STARLINK-1268 3.8 01:36:29 25° W 01:37:54 44° NNW 01:40:54 10° NE
STARLINK-1289 3.9 01:36:52 22° W 01:39:02 56° NNW 01:42:45 10° NE
Cosmos 2181 Rocket 4.5 01:33:17 10° NNW 01:39:24 47° W 01:42:48 25° SSW
Cosmos 1697 Rocket 4.1 01:36:19 14° WSW 01:40:25 30° NW 01:45:22 10° N
STARLINK-1301 4.0 01:38:34 20° W 01:41:01 54° NNW 01:44:49 10° NE
STARLINK-1308 3.9 01:40:08 36° SSW 01:41:25 50° SE 01:45:27 10° ENE
Resurs 1-4 Rocket 2.1 01:36:25 10° NNE 01:41:46 81° ESE 01:44:54 26° S
STARLINK-66 4.5 01:39:32 15° W 01:41:49 34° NNW 01:44:49 10° NE
DELTA 2 DEB (DPAF) 4.5 01:40:14 32° SSW 01:41:54 48° W 01:46:14 10° NNW
STARLINK-1303 4.0 01:40:12 20° W 01:42:32 53° NNW 01:46:14 10° NE
STARLINK-1316 4.0 01:41:30 21° W 01:43:10 42° NNW 01:46:11 10° NE
Cosmos 1400 Rocket 3.4 01:39:37 10° NNW 01:43:32 41° W 01:44:45 32° SW
STARLINK-1257 4.0 01:42:21 21° W 01:44:04 41° NNW 01:47:05 10° NE
Cosmos 1125 Rocket 3.4 01:39:35 10° NNW 01:44:49 81° WSW 01:48:54 17° SSE
STARLINK-1256 4.0 01:43:18 21° W 01:45:02 41° NNW 01:48:02 10° NE
STARLINK-58 3.5 01:44:00 27° W 01:45:27 52° NNW 01:48:34 10° NE
STARLINK-1213 4.0 01:44:08 20° W 01:45:55 40° NNW 01:48:54 10° NE
STARLINK-1312 4.1 01:43:33 19° W 01:46:02 51° NNW 01:49:44 10° NE
STARLINK-1263 4.1 01:45:01 19° W 01:46:49 40° NNW 01:49:48 10° NE
Meteor 2-17 Rocket 4.5 01:42:54 23° S 01:46:58 82° E 01:53:06 10° N
STARLINK-52 3.7 01:44:26 10° NW 01:47:36 54° NNE 01:50:45 10° ESE
STARLINK-1259 4.1 01:45:54 19° W 01:47:45 39° NNW 01:50:44 10° NE
STARLINK-1265 4.1 01:46:15 19° W 01:48:09 39° NNW 01:51:10 10° NE
STARLINK-1285 4.1 01:46:45 19° W 01:48:38 39° NNW 01:51:37 10° NE
STARLINK-1296 4.1 01:48:30 18° W 01:50:27 38° NNW 01:53:25 10° NE
STARLINK-1304 3.7 01:49:41 33° SSW 01:51:20 59° SE 01:55:25 10° ENE
STARLINK-1260 4.2 01:49:21 17° W 01:51:21 38° NNW 01:54:19 10° NE
STARLINK-1318 4.2 01:50:13 17° W 01:52:15 37° NNW 01:55:13 10° NE
Cosmos 1408 4.4 01:49:31 12° SE 01:52:16 26° E 01:55:23 10° NNE
STARLINK-1275 4.2 01:51:06 16° W 01:53:10 37° NNW 01:56:08 10° NE
STARLINK-1309 4.2 01:51:57 16° W 01:54:04 37° NNW 01:57:00 10° NE
Cosmos 2154 Rocket 4.1 01:49:51 20° S 01:54:22 80° E 02:00:37 10° N
STARLINK-1282 4.2 01:52:49 16° W 01:54:58 36° NNW 01:57:54 10° NE
STARLINK-48 3.6 01:53:48 24° WSW 01:56:00 73° NNW 01:59:54 10° ENE
STARLINK-1313 4.4 01:53:45 14° W 01:56:06 34° NNW 01:59:01 10° NE
STARLINK-1279 4.4 01:54:39 13° W 01:57:03 33° NNW 01:59:56 10° NE
GEOS 3 Rocket 3.7 01:52:10 10° SE 01:57:21 81° NE 02:02:41 10° NW
STARLINK-1278 3.6 01:55:21 29° SW 01:57:28 74° SSE 02:01:44 10° ENE
STARLINK-1298 4.3 01:55:23 15° W 01:57:39 35° NNW 02:00:34 10° NE
Meteor 1-27 4.4 01:52:21 10° NNW 01:57:46 56° W 02:01:18 22° SSW
STARLINK-1293 4.3 01:56:16 14° W 01:58:35 35° NNW 02:01:30 10° NE
STARLINK-80 4.4 01:55:29 13° W 01:58:38 44° NNW 02:02:18 10° NE
Cosmos 2227 4.5 01:53:09 10° NW 01:58:41 50° WSW 02:02:39 19° S
Cosmos 1825 4.3 01:56:02 10° SE 01:58:55 21° E 02:01:50 10° NE
STARLINK-1280 3.6 01:57:07 28° SW 01:59:19 76° SSE 02:03:35 10° ENE
SL-16 R/B 2.6 01:55:29 19° S 01:59:52 59° WSW 02:06:00 10° NNW
Cosmos 836 Rocket 4.5 01:56:56 25° SSW 02:00:07 86° WNW 02:05:28 10° NNE
STARLINK-1255 4.4 01:58:01 14° W 02:00:24 34° NNW 02:03:19 10° NE
Iridium 2 3.6 01:57:28 10° N 02:01:15 71° W 02:03:12 27° S
STARLINK-22 4.5 01:58:39 12° W 02:01:18 34° NNW 02:04:17 10° NE
Cosmos 1241 Rocket 4.4 01:57:57 23° SW 02:02:02 84° NW 02:08:20 10° NE
Meteor 2-2 Rocket 4.3 01:57:13 10° NNW 02:03:17 84° W 02:08:42 13° S
STARLINK-1297 4.3 02:00:20 13° W 02:03:18 42° NNW 02:06:47 10° NE
Cosmos 1844 Rocket 4.0 01:59:46 10° NNW 02:05:03 41° NE 02:10:17 10° SE
NOSS 2-1 (E) 2.9 02:04:58 31° SW 02:06:30 85° NW 02:10:11 10° NE
STARLINK-1286 3.6 02:05:37 25° SW 02:07:57 79° SSE 02:12:08 10° ENE
CRYOSAT 2 4.3 02:03:16 10° N 02:08:11 76° W 02:11:31 20° SSW
SL-16 R/B 2.2 02:04:36 22° SSW 02:08:21 88° WNW 02:14:04 10° NNE
STARLINK-1281 3.5 02:08:48 24° SW 02:11:12 80° SSE 02:15:21 10° ENE
IRIDIUM 104 4.4 02:07:39 16° S 02:11:53 80° E 02:17:08 10° N
CZ-2D R/B 2.3 02:07:45 10° N 02:12:53 57° WNW 02:16:21 20° SW
Cosmos 2221 2.7 02:09:14 10° NNW 02:13:30 55° W 02:16:17 21° SSW
STARLINK-1029 3.9 02:11:18 16° W 02:13:35 42° NNW 02:16:39 10° NE
STARLINK-34 4.3 02:11:58 12° W 02:14:29 34° NNW 02:17:22 10° NE
STARLINK-37 4.5 02:13:33 21° S 02:15:03 29° SE 02:18:14 10° ENE
STARLINK-60 3.3 02:12:29 10° WNW 02:15:30 40° SW 02:18:31 10° SSE
STARLINK-1310 3.6 02:13:35 22° SW 02:16:11 85° SSE 02:20:20 10° ENE
FALCON 9 DEB 3.7 02:13:29 10° NW 02:16:55 61° NNE 02:20:21 10° ESE
GP-B 4.4 02:14:31 10° NNW 02:18:14 26° WNW 02:20:26 18° WSW
STARLINK-62 4.4 02:15:41 11° W 02:18:20 33° NNW 02:21:09 10° NE
USA 215 4.2 02:15:22 18° SSW 02:18:24 24° SW 02:23:32 10° WNW
Nadezhda 3 Rocket 4.1 02:12:37 10° NNW 02:18:54 67° W 02:24:39 13° S
Cosmos 1315 Rocket 3.2 02:15:27 10° NNW 02:19:12 44° W 02:21:25 22° SSW
STARLINK-63 4.4 02:18:10 21° S 02:19:49 31° SE 02:23:03 10° ENE
Cosmos 1842 Rocket 4.2 02:16:33 10° NNW 02:20:42 38° W 02:23:13 20° SSW
IRIDIUM 114 4.3 02:16:46 16° S 02:21:02 86° W 02:26:17 10° N
STARLINK-1319 3.6 02:18:21 20° WSW 02:21:08 89° NNW 02:25:18 10° ENE
STARLINK-35 4.4 02:19:32 20° S 02:21:10 30° SE 02:24:21 10° ENE
CBERS-1 4.0 02:17:22 10° NNE 02:22:32 89° W 02:26:40 16° SSW
STARLINK-51 4.4 02:21:14 20° S 02:22:58 32° SE 02:26:13 10° ENE
STARLINK-30 4.3 02:22:49 20° S 02:24:38 33° SE 02:27:55 10° ENE
STARLINK-72 4.3 02:24:13 20° S 02:26:00 33° SE 02:29:16 10° ENE
STARLINK-1277 3.6 02:23:08 18° WSW 02:26:08 84° NNW 02:30:17 10° ENE
Shenzhou-11 Module 2.0 02:26:47 33° SSW 02:27:08 35° S 02:29:25 10° ESE
STARLINK-59 4.1 02:27:25 20° SSW 02:29:20 37° SE 02:32:40 10° ENE
Cosmos 2058 3.0 02:27:00 19° SSW 02:29:53 63° W 02:34:06 10° N
IRIDIUM 103 4.3 02:25:55 15° SSW 02:30:12 72° W 02:35:27 10° N
Cosmos 2360 Rocket 2.5 02:25:44 14° S 02:30:26 63° ESE 02:36:02 10° NNE
STARLINK-56 4.1 02:29:04 20° SSW 02:31:06 37° SE 02:34:29 10° ENE
STARLINK-1276 3.7 02:27:56 17° WSW 02:31:08 79° NNW 02:35:17 10° ENE
STARLINK-73 4.1 02:30:38 19° SSW 02:32:43 38° SE 02:36:07 10° ENE
STARLINK-38 4.0 02:32:12 19° SSW 02:34:20 40° SE 02:37:46 10° ENE
STARLINK-65 4.0 02:33:46 19° SSW 02:35:58 41° SE 02:39:25 10° ENE
STARLINK-1305 3.7 02:32:42 15° WSW 02:36:05 74° NNW 02:40:14 10° ENE
STARLINK-68 3.9 02:34:23 19° SSW 02:36:39 44° SE 02:40:09 10° ENE
STARLINK-1306 3.8 02:33:14 14° WSW 02:36:46 71° NNW 02:40:59 10° ENE
STARLINK-53 3.9 02:35:24 19° SSW 02:37:40 44° SE 02:41:09 10° ENE
Cosmos 1980 Rocket 4.0 02:34:33 10° W 02:38:47 21° NW 02:43:03 10° N
STARLINK-50 4.0 02:37:26 18° SSW 02:39:57 43° SE 02:43:35 10° ENE
CZ-4B R/B 4.1 02:35:17 10° N 02:40:17 46° WNW 02:44:30 14° SW
STARLINK-1262 3.8 02:37:30 13° WSW 02:41:06 69° NNW 02:45:15 10° ENE
STARLINK-1372 4.5 02:39:48 10° NW 02:43:43 51° NNE 02:47:36 10° E
Cosmos 2333 Rocket 3.7 02:39:12 10° SSE 02:44:08 32° ESE 02:49:05 10° NE
STARLINK-71 4.0 02:41:45 17° SSW 02:44:40 50° SE 02:48:35 10° ENE
STARLINK-1300 3.9 02:42:17 12° WSW 02:46:05 65° NNW 02:50:13 10° ENE
Meteor 1-28 Rocket 3.4 02:42:29 10° SSE 02:46:14 72° ENE 02:49:57 10° N
Cosmos 2219 Rocket 3.6 02:43:22 10° SSE 02:48:15 32° ESE 02:53:08 10° NE
STARLINK-29 3.2 02:45:18 10° WNW 02:48:21 42° SW 02:51:22 10° SE
STARLINK-1026 4.4 02:45:20 15° SSW 02:48:27 41° SE 02:52:21 10° ENE
STARLINK-1378 4.4 02:44:32 10° NW 02:48:29 55° NNE 02:52:26 10° ESE
Cosmos 2322 4.4 02:44:01 10° S 02:49:29 50° ESE 02:55:01 10° NE
ADEOS II 2.2 02:45:24 10° N 02:50:38 66° WNW 02:55:36 11° SSW
STARLINK-1295 4.0 02:47:03 11° WSW 02:51:04 62° NNW 02:55:11 10° ENE
STARLINK-64 4.4 02:48:22 10° W 02:51:47 40° NNW 02:55:12 10° NE
STARLINK-1379 4.3 02:49:01 10° NW 02:53:01 57° NNE 02:56:59 10° ESE
SL-4 R/B 3.0 02:49:02 10° WNW 02:53:15 31° SW 02:57:18 10° SSE
IRS-1D 4.0 02:48:18 10° N 02:53:23 50° WNW 02:58:00 12° SW
STARLINK-1013 4.3 02:50:08 14° SSW 02:53:26 44° SE 02:57:23 10° ENE
Cosmos 2263 Rocket 3.5 02:49:59 10° NW 02:54:01 21° W 02:57:35 12° SW
IDEFIX/ARIANE 42P 3.5 02:49:03 10° NNE 02:54:08 47° E 02:59:09 10° S
Cosmos 1606 3.4 02:51:07 10° N 02:54:50 54° ENE 02:58:33 10° SSE
ERS-2 2.2 02:52:12 10° SSE 02:55:51 81° ENE 02:59:32 10° NNW
STARLINK-1287 4.1 02:51:58 10° WSW 02:56:03 58° NNW 03:00:09 10° NE
STARLINK-25 3.3 02:53:37 15° SW 02:56:22 59° SE 02:59:48 10° ENE
STARLINK-1329 4.2 02:52:50 10° NW 02:56:51 60° NNE 03:00:51 10° ESE
STARLINK-1009 4.1 02:54:54 13° SSW 02:58:22 48° SE 03:02:22 10° ENE
ATLAS 5 CENTAUR R/B 4.0 02:56:51 10° SE 02:58:33 12° ESE 03:00:19 10° E
BREEZE-M R/B 2.5 02:55:11 10° WNW 02:58:47 66° NNE 03:01:15 10° E
Cosmos 2341 Rocket 4.2 02:52:36 10° SSW 02:58:51 62° WNW 03:05:08 10° N
Cosmos 1892 3.9 02:56:52 13° SW 02:59:39 28° WNW 03:02:59 10° NNW
ARIANE 5 R/B 2.5 02:54:48 10° NNE 02:59:51 87° WNW 03:04:50 10° SSW
STARLINK-1362 4.1 02:57:23 10° WNW 03:01:24 64° NNE 03:05:25 10° ESE
STARLINK-1320 3.0 02:59:37 10° WNW 03:02:45 80° NNE 03:05:51 10° ESE
STARLINK-1322 3.0 02:59:58 10° WNW 03:03:06 80° NNE 03:06:13 10° ESE
STARLINK-1015 4.0 02:59:41 12° SW 03:03:19 52° SE 03:07:22 10° ENE
STARLINK-1324 2.9 03:00:17 10° WNW 03:03:25 81° NNE 03:06:32 10° ESE
STARLINK-1294 3.0 03:00:35 10° WNW 03:03:44 81° NNE 03:06:52 10° ESE
STARLINK-1261 2.9 03:00:58 10° WNW 03:04:07 82° NNE 03:07:13 10° ESE
CZ-2C R/B 3.7 03:00:45 10° NNE 03:04:23 45° E 03:08:05 10° S
STARLINK-1325 2.9 03:01:20 10° WNW 03:04:28 82° NNE 03:07:34 10° ESE
STARLINK-1333 2.9 03:01:42 10° WNW 03:04:50 83° NNE 03:07:56 10° ESE
CZ-2D R/B 3.7 03:00:36 10° NNE 03:04:52 76° ESE 03:09:14 10° S
STARLINK-1299 4.5 03:00:54 10° W 03:05:02 49° NNW 03:09:12 10° NE
STARLINK-1334 2.9 03:01:59 10° WNW 03:05:07 83° NNE 03:08:14 10° ESE
STARLINK-1326 2.9 03:02:18 10° WNW 03:05:26 84° NNE 03:08:33 10° ESE
STARLINK-1323 2.9 03:02:41 10° WNW 03:05:49 84° NNE 03:08:57 10° ESE
STARLINK-1373 4.0 03:01:51 10° WNW 03:05:53 67° NNE 03:09:53 10° ESE
STARLINK-1302 4.3 03:01:59 10° W 03:06:02 52° NNW 03:10:06 10° NE
STARLINK-1349 2.9 03:02:59 10° WNW 03:06:07 85° NNE 03:09:14 10° ESE
STARLINK-1336 2.9 03:03:18 10° WNW 03:06:26 85° NNE 03:09:34 10° ESE
Cosmos 1408 Rocket 4.4 03:02:22 10° SSE 03:06:31 50° E 03:10:42 10° NNE
IRS-1C 4.3 03:01:31 10° N 03:06:47 60° WNW 03:12:00 10° SSW
STARLINK-1331 2.9 03:03:41 10° WNW 03:06:49 86° NNE 03:09:56 10° ESE
STARLINK-1344 2.9 03:03:59 10° WNW 03:07:07 86° NNE 03:10:14 10° ESE
STARLINK-1343 2.9 03:04:22 10° WNW 03:07:30 87° NNE 03:10:37 10° ESE
STARLINK-24 3.6 03:03:58 11° SW 03:07:43 75° SSE 03:11:45 10° ENE
Cosmos 1959 Rocket 4.5 03:01:36 10° S 03:07:44 84° W 03:13:52 10° N
STARLINK-1346 2.9 03:04:39 10° WNW 03:07:48 87° NNE 03:10:57 10° ESE
STARLINK-1328 2.9 03:05:06 10° WNW 03:08:14 88° NE 03:11:20 10° ESE
STARLINK-1016 3.9 03:04:27 11° SW 03:08:17 57° SE 03:12:21 10° ENE
STARLINK-1354 2.8 03:05:23 10° WNW 03:08:31 88° NE 03:11:38 10° ESE
STARLINK-1347 2.8 03:05:40 10° WNW 03:08:47 89° NNE 03:11:55 10° ESE
Cosmos 1844 3.8 03:03:07 10° NNW 03:08:57 86° WSW 03:14:44 10° SSE
STARLINK-1357 2.8 03:06:06 10° WNW 03:09:13 89° N 03:12:21 10° ESE
STARLINK-1335 2.8 03:06:23 10° WNW 03:09:30 90° NNW 03:12:38 10° ESE
STARLINK-1327 2.8 03:06:44 10° WNW 03:09:51 89° W 03:12:59 10° ESE
STARLINK-1340 2.8 03:07:01 10° WNW 03:10:09 89° SSW 03:13:17 10° ESE
STARLINK-1356 2.8 03:07:25 10° WNW 03:10:33 89° SSW 03:13:40 10° ESE
STARLINK-1390 3.9 03:06:31 10° WNW 03:10:34 71° NNE 03:14:37 10° ESE
STARLINK-1345 2.8 03:07:43 10° WNW 03:10:51 88° SSW 03:13:58 10° ESE
STARLINK-1273 4.4 03:06:59 10° W 03:11:02 50° NNW 03:15:04 10° NE
STARLINK-1355 2.8 03:08:05 10° WNW 03:11:13 88° SSW 03:14:19 10° ESE
STARLINK-1321 2.8 03:08:25 10° WNW 03:11:33 87° SSW 03:14:40 10° ESE
STARLINK-1358 2.8 03:08:48 10° WNW 03:11:56 87° SW 03:15:03 10° ESE
STARLINK-1332 2.8 03:09:06 10° WNW 03:12:13 86° SW 03:15:20 10° ESE
STARLINK-1348 2.8 03:09:26 10° WNW 03:12:34 86° SW 03:15:41 10° ESE
STARLINK-1330 2.8 03:09:45 10° WNW 03:12:54 85° SSW 03:16:00 10° ESE
STARLINK-1363 2.8 03:10:06 10° WNW 03:13:14 85° SSW 03:16:20 10° SE
STARLINK-1008 3.8 03:09:15 10° SW 03:13:16 62° SE 03:17:22 10° ENE
STARLINK-1337 2.8 03:10:29 10° WNW 03:13:36 84° SW 03:16:43 10° SE
STARLINK-1342 2.8 03:10:47 10° WNW 03:13:55 84° SSW 03:17:02 10° SE
STARLINK-1364 2.8 03:11:08 10° WNW 03:14:15 83° SSW 03:17:23 10° SE
STARLINK-1376 2.8 03:11:28 10° WNW 03:14:36 83° SSW 03:17:42 10° SE
STARLINK-1360 2.8 03:11:48 10° WNW 03:14:56 82° SSW 03:18:04 10° SE
STARLINK-61 4.1 03:11:20 10° WSW 03:15:12 54° NNW 03:19:04 10° NE
STARLINK-1361 2.8 03:12:09 10° WNW 03:15:16 82° SW 03:18:24 10° SE
STARLINK-1367 2.8 03:12:25 10° WNW 03:15:35 81° SSW 03:18:44 10° SE
STARLINK-1366 2.8 03:12:48 10° WNW 03:15:55 81° SSW 03:19:02 10° SE
STARLINK-1288 4.4 03:12:00 10° W 03:16:01 47° NNW 03:20:02 10° NE
STARLINK-81 3.3 03:12:46 10° SW 03:16:24 81° SSE 03:20:02 10° ENE
STARLINK-1365 3.8 03:12:30 10° WNW 03:16:36 78° NNE 03:20:40 10° ESE
Cosmos 2322 Rocket 3.2 03:11:54 10° WSW 03:17:00 35° NW 03:22:08 10° NNE
Cosmos 1151 Rocket 3.1 03:12:55 10° N 03:17:19 88° W 03:21:43 10° S
CZ-4B R/B 3.9 03:15:09 10° SE 03:17:42 24° ENE 03:20:18 10° NNE
STARLINK-54 3.2 03:14:33 10° WSW 03:18:09 90° NNW 03:21:46 10° ENE
STARLINK-1014 3.8 03:14:09 10° SW 03:18:14 67° SE 03:22:20 10° ENE
Meteor 2-3 Rocket 4.3 03:12:55 10° S 03:18:24 60° E 03:23:54 10° NNE
Cosmos 1461 3.9 03:13:55 10° NNW 03:18:33 60° NE 03:23:14 10° SE
SL-8 Rocket 4.2 03:12:22 10° SSW 03:18:34 59° WNW 03:24:45 10° N
STARLINK-77 3.3 03:16:02 10° SW 03:19:39 86° SSE 03:23:18 10° ENE
Resurs 1-4 Rocket 4.0 03:17:38 10° NNW 03:20:56 17° WNW 03:24:15 10° W
Cosmos 2151 3.5 03:17:36 10° SSW 03:21:42 44° WNW 03:25:51 10° N
Lacrosse 5 rocket 2.9 03:18:59 10° S 03:22:19 25° SE 03:25:33 10° ENE
Cosmos 2218 Rocket 4.2 03:16:39 10° SSW 03:22:58 65° WNW 03:29:22 10° N
H-2A R/B 2.2 03:18:44 10° S 03:23:08 65° WSW 03:27:38 10° NNW
STARLINK-1025 3.7 03:19:05 10° SW 03:23:13 72° SE 03:27:21 10° ENE
STARLINK-52 4.0 03:20:53 10° W 03:23:32 24° SW 03:26:11 10° SSE
COBE Rocket 4.5 03:19:33 10° SSW 03:24:21 43° W 03:29:18 10° NNW
Cosmos 1766 Rocket 3.6 03:20:06 10° SSW 03:24:23 62° W 03:28:42 10° N
STARLINK-79 3.3 03:20:55 10° WSW 03:24:32 88° NW 03:28:11 10° ENE
STARLINK-78 3.3 03:22:33 10° WSW 03:26:11 85° NNW 03:29:50 10° ENE
STARLINK-1338 3.6 03:22:26 10° WNW 03:26:27 88° NE 03:30:26 10° ESE
Cosmos 1408 4.1 03:24:20 10° SW 03:27:16 22° WNW 03:30:13 10° NNW
Okean 3 Rocket 4.0 03:23:04 10° SSW 03:27:30 51° WNW 03:31:56 10° N
STARLINK-57 3.3 03:24:13 10° WSW 03:27:49 80° NNW 03:31:27 10° ENE
STARLINK-1017 3.7 03:24:01 10° SW 03:28:09 78° SSE 03:32:18 10° ENE
Cosmos 1515 Rocket 3.9 03:24:52 10° N 03:29:15 72° E 03:33:35 10° SSE
STARLINK-49 3.3 03:25:44 10° WSW 03:29:21 81° NNW 03:32:58 10° ENE
Spot 4 Rocket 4.2 03:26:28 10° N 03:31:33 64° WNW 03:36:37 10° SSW
